Date String (YYYY-MM-DD hh:mm:ss) UTC,Instrument flags,Ambient pressure (hPa),Sample flow (lpm),Bypass flow (lpm),Sample temperature (°C),Ambient temperature (°C),ASC tube jacket temperature (°C),LED temperature (°C),Box temperature (°C),Sample RH (%),Span deviation,Mass concentration (μg/m³),Mass concentration (μg/m³),Mass concentration (μg/m³)
DateTimeUTC,F1_M11,P_M11,Q1_M11,Q2_M11,T1_M11,T2_M11,T3_M11,T4_M11,T5_M11,U1_M11,ZSPAN_M11,X0_M11,X2_M11,X1_M11
2022-07-23 17:00:00,,0826.0,5.00,0.00,29.5,27.4,00.0,38.1,31.4,20.0,0000.0,0013.07,0005.05,0004.16
2022-07-23 17:01:00,,0826.0,5.00,0.00,29.5,27.5,00.0,38.1,31.3,19.8,0000.0,0012.28,0004.98,0004.14
2022-07-23 17:02:00,,0826.0,5.00,0.00,29.5,27.6,00.0,38.1,31.3,19.6,0000.0,0011.43,0004.97,0004.12
2022-07-23 17:03:00,,0826.0,5.01,0.00,29.5,27.8,00.0,38.2,31.4,20.1,0000.0,0011.10,0004.93,0004.12
2022-07-23 17:04:00,,0826.0,5.00,0.00,29.5,27.9,00.0,38.2,31.4,19.9,0000.0,0010.84,0004.86,0004.11
2022-07-23 17:05:00,,0826.0,5.01,0.00,29.5,27.5,00.0,38.1,31.4,19.9,0000.0,0010.08,0004.82,0004.11
2022-07-23 17:06:00,,0826.0,5.00,0.00,29.5,27.2,00.0,38.1,31.3,20.0,0000.0,0009.86,0004.79,0004.11
2022-07-23 17:07:00,,0826.0,5.01,0.00,29.4,27.2,00.0,38.1,31.3,20.0,0000.0,0009.37,0004.80,0004.11
2022-07-23 17:08:00,,0826.0,4.99,0.00,29.4,27.4,00.0,38.1,31.2,21.1,0000.0,0009.17,0004.76,0004.12
2022-07-23 17:09:00,,0826.0,5.00,0.00,29.4,27.6,00.0,38.1,31.2,21.3,0000.0,0009.44,0004.82,0004.17
2022-07-23 17:10:00,,0826.0,5.00,0.00,29.4,27.8,00.0,38.1,31.3,21.7,0000.0,0009.92,0004.91,0004.21
2022-07-23 17:11:00,,0826.1,5.00,0.00,29.4,28.0,00.0,38.1,31.4,21.8,0000.0,0010.17,0004.97,0004.26
2022-07-23 17:12:00,,0826.1,5.00,0.00,29.5,27.8,00.0,38.1,31.4,21.9,0000.0,0010.28,0005.01,0004.29
2022-07-23 17:13:00,,0826.1,5.01,0.00,29.4,27.2,00.0,38.0,31.3,21.6,0000.0,0010.58,0005.06,0004.32
2022-07-23 17:14:00,,0826.1,5.01,0.00,29.4,27.1,00.0,38.0,31.2,20.8,0000.0,0010.96,0005.12,0004.33
2022-07-23 17:15:00,,0826.1,4.99,0.00,29.4,27.2,00.0,38.0,31.2,21.1,0000.0,0010.87,0005.14,0004.35
2022-07-23 17:16:00,,0826.1,5.01,0.00,29.3,27.4,00.0,38.0,31.2,21.9,0000.0,0011.01,0005.18,0004.36
2022-07-23 17:17:00,,0826.2,5.01,0.00,29.3,27.6,00.0,38.0,31.2,22.2,0000.0,0011.64,0005.28,0004.39
2022-07-23 17:18:00,,0826.2,5.00,0.00,29.4,27.8,00.0,38.1,31.3,22.2,0000.0,0011.83,0005.32,0004.42
2022-07-23 17:19:00,,0826.2,5.00,0.00,29.4,28.0,00.0,38.1,31.3,21.8,0000.0,0012.23,0005.33,0004.42
2022-07-23 17:20:00,,0826.1,5.00,0.00,29.4,28.1,00.0,38.1,31.4,21.7,0000.0,0012.05,0005.27,0004.40
2022-07-23 17:21:00,,0826.2,4.99,0.00,29.4,27.5,00.0,38.0,31.3,22.1,0000.0,0011.52,0005.24,0004.39
2022-07-23 17:22:00,,0826.2,5.01,0.00,29.4,27.1,00.0,38.0,31.2,22.5,0000.0,0011.24,0005.21,0004.39
2022-07-23 17:23:00,,0826.2,5.00,0.00,29.4,27.2,00.0,38.0,31.2,22.6,0000.0,0011.32,0005.21,0004.39
2022-07-23 17:24:00,,0826.2,4.99,0.00,29.3,27.3,00.0,38.0,31.2,22.5,0000.0,0011.30,0005.27,0004.41
2022-07-23 17:25:00,,0826.2,5.00,0.00,29.3,27.5,00.0,38.0,31.2,22.6,0000.0,0011.63,0005.29,0004.44
2022-07-23 17:26:00,,0826.2,5.00,0.00,29.3,27.7,00.0,38.0,31.2,22.8,0000.0,0012.13,0005.33,0004.47
2022-07-23 17:27:00,,0826.3,5.00,0.00,29.4,27.9,00.0,38.1,31.3,22.8,0000.0,0012.29,0005.37,0004.50
2022-07-23 17:28:00,,0826.3,5.01,0.00,29.4,28.0,00.0,38.1,31.4,22.8,0000.0,0012.25,0005.34,0004.51
2022-07-23 17:29:00,,0826.3,5.00,0.00,29.4,27.5,00.0,38.0,31.3,22.7,0000.0,0012.60,0005.38,0004.55
2022-07-23 17:30:00,,0826.4,5.01,0.00,29.4,27.2,00.0,38.0,31.2,23.0,0000.0,0012.91,0005.43,0004.58
2022-07-23 17:31:00,,0826.4,4.99,0.00,29.3,27.2,00.0,38.0,31.2,23.0,0000.0,0012.88,0005.45,0004.59
2022-07-23 17:32:00,,0826.5,5.00,0.00,29.3,27.3,00.0,38.0,31.2,22.9,0000.0,0012.98,0005.49,0004.61
2022-07-23 17:33:00,,0826.5,5.00,0.00,29.3,27.5,00.0,38.0,31.2,22.6,0000.0,0013.00,0005.51,0004.58
2022-07-23 17:34:00,,0826.4,5.00,0.00,29.3,27.7,00.0,38.0,31.2,22.6,0000.0,0013.55,0005.52,0004.56
2022-07-23 17:35:00,,0826.3,5.00,0.00,29.3,27.9,00.0,38.0,31.3,22.6,0000.0,0013.92,0005.50,0004.54
2022-07-23 17:36:00,,0826.2,5.00,0.00,29.4,28.1,00.0,38.0,31.3,22.5,0000.0,0013.45,0005.43,0004.50
2022-07-23 17:37:00,,0826.2,5.00,0.00,29.4,27.9,00.0,38.0,31.4,22.5,0000.0,0013.54,0005.39,0004.46
2022-07-23 17:38:00,,0826.2,5.00,0.00,29.4,27.3,00.0,38.0,31.3,22.4,0000.0,0013.98,0005.38,0004.42
2022-07-23 17:39:00,,0826.3,5.00,0.00,29.4,27.2,00.0,37.9,31.2,22.5,0000.0,0013.79,0005.32,0004.38
2022-07-23 17:40:00,,0826.4,5.00,0.00,29.3,27.3,00.0,38.0,31.2,22.5,0000.0,0013.43,0005.27,0004.32
2022-07-23 17:41:00,,0826.5,5.00,0.00,29.3,27.4,00.0,38.0,31.2,22.9,0000.0,0013.20,0005.19,0004.26
2022-07-23 17:42:00,,0826.5,5.01,0.00,29.3,27.6,00.0,38.0,31.2,23.2,0000.0,0013.01,0005.12,0004.22
2022-07-23 17:43:00,,0826.5,5.00,0.00,29.3,27.8,00.0,38.0,31.3,22.7,0000.0,0013.39,0005.06,0004.19
2022-07-23 17:44:00,,0826.5,5.00,0.00,29.4,27.6,00.0,38.0,31.3,22.7,0000.0,0013.30,0005.03,0004.19
2022-07-23 17:45:00,,0826.5,5.01,0.00,29.3,27.1,00.0,37.9,31.2,23.1,0000.0,0013.41,0005.05,0004.20
2022-07-23 17:46:00,,0826.5,4.99,0.00,29.3,27.1,00.0,37.9,31.2,23.9,0000.0,0013.26,0005.05,0004.20
2022-07-23 17:47:00,,0826.6,4.99,0.00,29.3,27.2,00.0,37.9,31.1,23.6,0000.0,0013.93,0005.09,0004.21
2022-07-23 17:48:00,,0826.6,5.01,0.00,29.3,27.3,00.0,37.9,31.1,23.4,0000.0,0013.25,0005.08,0004.22
2022-07-23 17:49:00,,0826.5,5.00,0.00,29.3,27.5,00.0,37.9,31.2,23.5,0000.0,0012.62,0005.04,0004.23
2022-07-23 17:50:00,,0826.5,5.00,0.00,29.3,27.7,00.0,38.0,31.2,23.3,0000.0,0012.32,0005.06,0004.24
2022-07-23 17:51:00,,0826.5,4.99,0.00,29.3,27.9,00.0,38.0,31.3,23.1,0000.0,0012.58,0005.08,0004.26
2022-07-23 17:52:00,,0826.5,5.01,0.00,29.3,27.7,00.0,37.9,31.3,23.4,0000.0,0012.51,0005.12,0004.29
2022-07-23 17:53:00,,0826.5,4.99,0.00,29.3,27.2,00.0,37.9,31.2,22.8,0000.0,0012.59,0005.18,0004.31
2022-07-23 17:54:00,,0826.5,5.01,0.00,29.3,27.1,00.0,37.9,31.2,22.5,0000.0,0012.41,0005.24,0004.32
2022-07-23 17:55:00,,0826.6,5.00,0.00,29.3,27.2,00.0,37.9,31.1,22.8,0000.0,0012.53,0005.25,0004.33
2022-07-23 17:56:00,,0826.5,4.99,0.00,29.2,27.4,00.0,37.9,31.1,23.2,0000.0,0012.33,0005.23,0004.33
2022-07-23 17:57:00,,0826.5,5.01,0.00,29.2,27.6,00.0,37.9,31.1,23.9,0000.0,0011.63,0005.25,0004.35
2022-07-23 17:58:00,,0826.5,5.00,0.00,29.3,27.6,00.0,37.9,31.2,24.2,0000.0,0011.29,0005.27,0004.37
2022-07-23 17:59:00,,0826.5,4.99,0.00,29.2,27.0,00.0,37.9,31.1,23.5,0000.0,0011.71,0005.31,0004.35
